Jilin-1 GaoFen 03B 04 xing

operational
NORAD ID: 46457 Int'l Des: NNA 2020-065 Owner: CGSTL Country: CN Constellation: jilin-1
LEOCIRCULARRETROGRADESSO

Jilin-1 GaoFen 03B 04 xingについて

説明を読み込み中...

リアルタイム位置

3D地球を読み込み中...

次回通過

高度履歴

Altitude vs Time

uPlot chart will show altitude changes over time

軌道要素

1 46457U 20065D 26063.61153647 .00053135 00000-0 83753-3 0 9995
2 46457 97.2436 114.5400 0014625 181.8394 178.2808 15.53267446303470
Epoch: Mar 4, 2026 • Age: 20 hours

現在のステータス

高度 399.9 km
速度 7.68 km/s
衛星直下点 4.13°N, 168.35°W
打ち上げ日 Sep 15, 2020
運用期間 5.4 years
タイプ earth observation

技術仕様

分類 Payload
質量 42.00 kg
乾燥質量 42.00 kg
総質量 42.00 kg
長さ 1.50 m
直径 1.00 m
スパン 1.50 m
形状 Box
製造者 CGSTL
バスタイプ JL-1
フェーズステータス In Orbit
所有者/国 CGSTL/CN

大規模コンステレーション

Loading constellations...